�������l�o���
Date,Time,MP-1(��Sv/h),MP-2(��Sv/h),MP-3(��Sv/h),MP-4(��Sv/h),MP-5(��Sv/h),MP-6(��Sv/h),MP-7(��Sv/h),MP-8(��Sv/h),����,����(m/s),���J
2021/05/03,00:00,0.604,0.888,0.566,1.087,0.763,0.364,0.635,0.600,�k��,6.9,��
2021/05/03,00:10,0.605,0.888,0.565,1.091,0.762,0.364,0.637,0.599,�k��,8.0,��
2021/05/03,00:20,0.604,0.889,0.566,1.090,0.761,0.364,0.636,0.600,�k��,9.5,��
2021/05/03,00:30,0.603,0.886,0.564,1.088,0.762,0.364,0.635,0.600,�k��,9.3,��
2021/05/03,00:40,0.606,0.886,0.565,1.092,0.763,0.365,0.637,0.600,�k��,10.5,��
2021/05/03,00:50,0.605,0.888,0.565,1.089,0.762,0.365,0.635,0.600,�k��,9.2,��
2021/05/03,01:00,0.604,0.886,0.566,1.091,0.765,0.365,0.637,0.602,�k��,8.6,��
2021/05/03,01:10,0.605,0.888,0.566,1.089,0.763,0.365,0.634,0.600,�k��,8.7,��
2021/05/03,01:20,0.604,0.889,0.565,1.090,0.765,0.365,0.638,0.599,�k��,10.0,��
2021/05/03,01:30,0.604,0.887,0.568,1.091,0.763,0.366,0.636,0.600,�k��,6.9,��
2021/05/03,01:40,0.607,0.887,0.566,1.090,0.763,0.364,0.636,0.600,�k��,6.9,��
2021/05/03,01:50,0.606,0.889,0.565,1.093,0.765,0.365,0.637,0.601,�k��,6.0,��
2021/05/03,02:00,0.604,0.888,0.566,1.093,0.764,0.364,0.635,0.599,�k��,7.5,��
2021/05/03,02:10,0.604,0.888,0.567,1.093,0.763,0.367,0.637,0.600,�k��,8.2,��
2021/05/03,02:20,0.603,0.887,0.568,1.092,0.763,0.364,0.637,0.600,�k��,8.8,��
2021/05/03,02:30,0.606,0.888,0.566,1.093,0.764,0.366,0.637,0.601,�k��,7.9,��
2021/05/03,02:40,0.605,0.888,0.566,1.092,0.764,0.366,0.639,0.601,�k��,6.1,��
2021/05/03,02:50,0.605,0.890,0.567,1.092,0.764,0.364,0.639,0.601,�k��,7.4,��
2021/05/03,03:00,0.605,0.890,0.567,1.092,0.765,0.365,0.637,0.600,�k��,5.8,��
2021/05/03,03:10,0.606,0.888,0.567,1.092,0.764,0.364,0.638,0.600,���k��,6.3,��
2021/05/03,03:20,0.605,0.888,0.568,1.092,0.763,0.366,0.638,0.601,�k��,7.0,��
2021/05/03,03:30,0.607,0.890,0.567,1.092,0.764,0.365,0.637,0.600,�k�k��,5.5,��
2021/05/03,03:40,0.604,0.890,0.567,1.092,0.763,0.366,0.639,0.600,�k�k��,4.4,��
2021/05/03,03:50,0.606,0.888,0.568,1.092,0.763,0.363,0.636,0.599,�k�k��,4.6,��
2021/05/03,04:00,0.604,0.889,0.568,1.093,0.763,0.366,0.639,0.599,�k�k��,4.0,��
2021/05/03,04:10,0.605,0.887,0.565,1.093,0.765,0.365,0.638,0.602,�k��,3.1,��
2021/05/03,04:20,0.605,0.891,0.567,1.094,0.766,0.365,0.638,0.600,�k��,1.5,��
2021/05/03,04:30,0.607,0.888,0.568,1.093,0.764,0.364,0.638,0.601,�k��,3.1,��
2021/05/03,04:40,0.606,0.887,0.569,1.094,0.764,0.365,0.637,0.601,���k��,4.7,��
2021/05/03,04:50,0.605,0.889,0.567,1.094,0.765,0.365,0.638,0.601,���k��,4.8,��
2021/05/03,05:00,0.605,0.891,0.565,1.094,0.763,0.366,0.638,0.600,���k��,6.6,��
2021/05/03,05:10,0.605,0.889,0.566,1.094,0.765,0.365,0.636,0.599,��,7.7,��
2021/05/03,05:20,0.604,0.891,0.567,1.093,0.765,0.365,0.638,0.600,��,6.5,��
2021/05/03,05:30,0.606,0.889,0.567,1.092,0.765,0.365,0.637,0.598,��,6.0,��
2021/05/03,05:40,0.605,0.889,0.567,1.092,0.767,0.364,0.638,0.600,��,6.2,��
2021/05/03,05:50,0.603,0.890,0.566,1.096,0.766,0.365,0.639,0.600,��,7.3,��
2021/05/03,06:00,0.606,0.890,0.568,1.094,0.765,0.365,0.637,0.600,��,6.7,��
2021/05/03,06:10,0.606,0.890,0.566,1.095,0.766,0.365,0.639,0.600,��,4.6,��
2021/05/03,06:20,0.605,0.889,0.567,1.094,0.767,0.364,0.638,0.600,��,4.3,��
2021/05/03,06:30,0.607,0.889,0.566,1.097,0.766,0.365,0.640,0.600,��,4.1,��
2021/05/03,06:40,0.606,0.889,0.567,1.096,0.766,0.365,0.640,0.601,��,3.8,��
2021/05/03,06:50,0.606,0.894,0.568,1.094,0.766,0.366,0.638,0.601,���k��,3.3,��
2021/05/03,07:00,0.606,0.891,0.568,1.096,0.768,0.366,0.638,0.600,���k��,2.6,��
2021/05/03,07:10,0.609,0.892,0.569,1.095,0.769,0.366,0.640,0.600,��,3.3,��
2021/05/03,07:20,0.608,0.892,0.570,1.095,0.766,0.364,0.641,0.602,���k��,4.8,��
2021/05/03,07:30,0.607,0.892,0.570,1.095,0.768,0.365,0.641,0.601,��,5.8,��
2021/05/03,07:40,0.605,0.892,0.571,1.096,0.768,0.365,0.640,0.601,��,7.2,��
2021/05/03,07:50,0.608,0.892,0.570,1.097,0.766,0.364,0.639,0.602,��,8.2,��
2021/05/03,08:00,0.610,0.892,0.573,1.097,0.768,0.365,0.638,0.602,��,8.4,��
2021/05/03,08:10,0.608,0.891,0.569,1.097,0.766,0.364,0.638,0.599,���k��,5.5,��
2021/05/03,08:20,0.608,0.894,0.570,1.096,0.766,0.365,0.639,0.600,��,8.3,��
2021/05/03,08:30,0.606,0.892,0.570,1.098,0.766,0.365,0.638,0.601,��,9.8,��
2021/05/03,08:40,0.610,0.893,0.572,1.098,0.768,0.364,0.638,0.599,��,9.1,��
2021/05/03,08:50,0.610,0.891,0.571,1.101,0.768,0.365,0.640,0.600,���쐼,9.4,��
2021/05/03,09:00,0.609,0.895,0.571,1.100,0.768,0.365,0.638,0.599,���쐼,9.5,��
2021/05/03,09:10,0.611,0.891,0.571,1.099,0.770,0.365,0.638,0.599,���쐼,10.2,��
2021/05/03,09:20,0.611,0.896,0.571,1.100,0.773,0.365,0.639,0.599,��,8.3,��
2021/05/03,09:30,0.612,0.896,0.571,1.099,0.771,0.367,0.639,0.600,��,8.9,��
2021/05/03,09:40,0.610,0.896,0.573,1.098,0.771,0.366,0.638,0.602,��,7.7,��
2021/05/03,09:50,0.611,0.895,0.572,1.103,0.773,0.366,0.639,0.601,��,9.2,��
2021/05/03,10:00,0.611,0.897,0.573,1.100,0.773,0.368,0.639,0.600,��,9.1,��
2021/05/03,10:10,0.610,0.896,0.570,1.100,0.769,0.366,0.639,0.600,��,8.5,��
2021/05/03,10:20,0.609,0.898,0.571,1.102,0.772,0.368,0.640,0.601,��,12.1,��
2021/05/03,10:30,0.610,0.895,0.570,1.103,0.772,0.368,0.640,0.599,��,11.1,��
2021/05/03,10:40,0.610,0.899,0.572,1.101,0.772,0.367,0.640,0.601,��,10.2,��
2021/05/03,10:50,0.611,0.898,0.574,1.105,0.772,0.367,0.639,0.599,��,11.8,��
2021/05/03,11:00,0.610,0.899,0.573,1.101,0.772,0.367,0.640,0.601,��,9.7,��
2021/05/03,11:10,0.609,0.900,0.571,1.105,0.773,0.367,0.641,0.600,��,8.2,��
2021/05/03,11:20,0.612,0.900,0.573,1.104,0.773,0.369,0.640,0.600,��,9.3,��
2021/05/03,11:30,0.611,0.900,0.573,1.105,0.772,0.368,0.639,0.600,��,12.4,��
2021/05/03,11:40,0.613,0.902,0.572,1.103,0.773,0.367,0.641,0.601,��,12.7,��
2021/05/03,11:50,0.612,0.902,0.573,1.104,0.776,0.368,0.641,0.601,��,9.8,��
2021/05/03,12:00,0.612,0.899,0.572,1.104,0.775,0.368,0.640,0.601,��,12.5,��
2021/05/03,12:10,0.612,0.903,0.574,1.101,0.776,0.368,0.640,0.601,��,9.3,��
2021/05/03,12:20,0.614,0.903,0.572,1.104,0.777,0.368,0.640,0.602,���쐼,10.2,��
2021/05/03,12:30,0.613,0.903,0.574,1.103,0.777,0.369,0.641,0.601,��,9.3,��
2021/05/03,12:40,0.613,0.902,0.574,1.105,0.776,0.368,0.642,0.601,���쐼,10.8,��
2021/05/03,12:50,0.613,0.906,0.576,1.104,0.778,0.369,0.641,0.601,���쐼,11.4,��
2021/05/03,13:00,0.613,0.903,0.574,1.104,0.778,0.369,0.641,0.601,���쐼,12.4,��
2021/05/03,13:10,0.614,0.902,0.574,1.105,0.778,0.369,0.641,0.600,���쐼,11.8,��
2021/05/03,13:20,0.613,0.905,0.575,1.105,0.778,0.369,0.641,0.602,���쐼,9.8,��
2021/05/03,13:30,0.613,0.903,0.575,1.106,0.778,0.370,0.641,0.602,���쐼,10.8,��
2021/05/03,13:40,0.614,0.904,0.574,1.108,0.780,0.369,0.641,0.601,��,12.7,��
2021/05/03,13:50,0.615,0.902,0.574,1.107,0.779,0.368,0.642,0.602,���쐼,11.0,��
2021/05/03,14:00,0.614,0.904,0.573,1.108,0.780,0.369,0.642,0.604,��,12.7,�L
2021/05/03,14:10,0.614,0.905,0.574,1.106,0.779,0.370,0.642,0.601,���쐼,9.7,��
2021/05/03,14:20,0.616,0.906,0.575,1.109,0.780,0.371,0.643,0.601,���쐼,9.8,��
2021/05/03,14:30,0.615,0.906,0.574,1.111,0.780,0.371,0.642,0.601,���쐼,11.3,��
2021/05/03,14:40,0.615,0.904,0.574,1.112,0.780,0.370,0.641,0.601,���쐼,11.3,��
2021/05/03,14:50,0.612,0.905,0.573,1.113,0.780,0.369,0.642,0.601,�쐼,10.9,��
2021/05/03,15:00,0.612,0.907,0.576,1.108,0.780,0.370,0.642,0.602,���쐼,11.9,��
2021/05/03,15:10,0.615,0.905,0.577,1.107,0.780,0.370,0.642,0.602,���쐼,11.3,��
2021/05/03,15:20,0.614,0.907,0.575,1.108,0.780,0.370,0.641,0.600,���쐼,11.1,��
2021/05/03,15:30,0.615,0.906,0.575,1.107,0.782,0.370,0.642,0.601,��,11.6,��
2021/05/03,15:40,0.615,0.907,0.576,1.108,0.780,0.370,0.641,0.602,���쐼,12.7,��
2021/05/03,15:50,0.614,0.908,0.575,1.109,0.781,0.370,0.642,0.601,���쐼,11.0,��
2021/05/03,16:00,0.615,0.906,0.575,1.108,0.782,0.370,0.642,0.600,���쐼,11.4,��
2021/05/03,16:10,0.613,0.907,0.577,1.109,0.781,0.370,0.642,0.600,���쐼,12.2,��
2021/05/03,16:20,0.615,0.905,0.577,1.109,0.783,0.370,0.642,0.602,���쐼,9.7,��
2021/05/03,16:30,0.615,0.903,0.576,1.110,0.782,0.370,0.642,0.602,���쐼,8.1,��
2021/05/03,16:40,0.616,0.905,0.575,1.109,0.782,0.371,0.640,0.603,���쐼,11.4,��
2021/05/03,16:50,0.614,0.906,0.575,1.109,0.782,0.370,0.642,0.602,���쐼,9.0,��
2021/05/03,17:00,0.613,0.907,0.577,1.110,0.783,0.370,0.642,0.602,��,10.9,��
2021/05/03,17:10,0.613,0.910,0.577,1.110,0.781,0.371,0.642,0.602,��,11.0,��
2021/05/03,17:20,0.615,0.910,0.576,1.111,0.782,0.373,0.639,0.601,��,11.6,��
2021/05/03,17:30,0.615,0.909,0.576,1.111,0.782,0.371,0.642,0.602,��,9.8,��
2021/05/03,17:40,0.614,0.910,0.575,1.111,0.782,0.371,0.640,0.601,���쐼,10.5,��
2021/05/03,17:50,0.614,0.911,0.574,1.112,0.782,0.372,0.641,0.603,���쐼,9.0,��
2021/05/03,18:00,0.617,0.912,0.575,1.111,0.781,0.371,0.643,0.603,��,9.3,�L
2021/05/03,18:10,0.615,0.912,0.576,1.113,0.781,0.371,0.643,0.605,��,9.5,��
2021/05/03,18:20,0.618,0.912,0.577,1.112,0.782,0.372,0.640,0.605,��,7.1,��
2021/05/03,18:30,0.617,0.913,0.578,1.115,0.784,0.372,0.641,0.604,��,7.8,��
2021/05/03,18:40,0.617,0.914,0.577,1.115,0.784,0.372,0.643,0.605,��,7.2,��
2021/05/03,18:50,0.618,0.912,0.576,1.115,0.783,0.372,0.640,0.605,��,7.6,��
2021/05/03,19:00,0.617,0.909,0.578,1.115,0.785,0.371,0.641,0.604,���쐼,6.9,��
2021/05/03,19:10,0.616,0.911,0.578,1.114,0.786,0.372,0.642,0.604,���쐼,5.7,��
2021/05/03,19:20,0.618,0.911,0.577,1.118,0.785,0.371,0.641,0.605,��,3.6,��
2021/05/03,19:30,0.617,0.912,0.577,1.117,0.783,0.372,0.642,0.604,��,2.5,��
2021/05/03,19:40,0.617,0.911,0.578,1.112,0.786,0.370,0.644,0.604,���쐼,3.0,��
2021/05/03,19:50,0.615,0.911,0.579,1.115,0.784,0.372,0.642,0.605,��,3.6,��
2021/05/03,20:00,0.616,0.910,0.577,1.115,0.784,0.370,0.642,0.604,���쐼,4.7,��
2021/05/03,20:10,0.617,0.908,0.578,1.116,0.784,0.371,0.644,0.603,���쐼,4.5,��
2021/05/03,20:20,0.615,0.910,0.577,1.114,0.784,0.370,0.643,0.602,���쐼,3.0,��
2021/05/03,20:30,0.616,0.910,0.577,1.112,0.784,0.369,0.643,0.605,���쐼,2.9,��
2021/05/03,20:40,0.616,0.912,0.579,1.114,0.785,0.370,0.643,0.604,��,3.3,��
2021/05/03,20:50,0.616,0.910,0.576,1.115,0.784,0.371,0.644,0.605,���k��,4.0,��
2021/05/03,21:00,0.614,0.909,0.577,1.114,0.784,0.369,0.644,0.604,��,2.3,��
2021/05/03,21:10,0.618,0.911,0.578,1.117,0.786,0.369,0.643,0.604,��,1.5,��
2021/05/03,21:20,0.615,0.909,0.577,1.115,0.783,0.371,0.642,0.604,-,CALM,��
2021/05/03,21:30,0.616,0.908,0.577,1.116,0.784,0.369,0.644,0.602,-,CALM,��
2021/05/03,21:40,0.616,0.909,0.579,1.116,0.784,0.369,0.643,0.604,-,CALM,��
2021/05/03,21:50,0.616,0.909,0.578,1.113,0.784,0.369,0.644,0.601,�k�k��,1.1,��
2021/05/03,22:00,0.616,0.909,0.577,1.113,0.784,0.369,0.644,0.602,�k�k��,1.7,��
2021/05/03,22:10,0.615,0.908,0.576,1.116,0.784,0.369,0.643,0.604,-,CALM,��
2021/05/03,22:20,0.616,0.909,0.577,1.114,0.783,0.370,0.642,0.604,��쐼,2.2,��
2021/05/03,22:30,0.614,0.909,0.579,1.114,0.783,0.369,0.643,0.602,��,2.8,��
2021/05/03,22:40,0.615,0.909,0.578,1.114,0.785,0.369,0.642,0.604,�쓌,2.8,��
2021/05/03,22:50,0.618,0.908,0.577,1.114,0.786,0.369,0.643,0.603,��,3.0,��
2021/05/03,23:00,0.616,0.908,0.578,1.114,0.784,0.369,0.644,0.604,�쐼,2.3,��
2021/05/03,23:10,0.616,0.909,0.578,1.114,0.783,0.370,0.640,0.602,���쐼,2.2,��
2021/05/03,23:20,0.614,0.911,0.577,1.114,0.784,0.369,0.644,0.603,��쐼,2.3,��
2021/05/03,23:30,0.615,0.910,0.578,1.114,0.784,0.369,0.642,0.603,��쐼,1.5,��
2021/05/03,23:40,0.616,0.909,0.576,1.115,0.784,0.368,0.643,0.602,�쐼,0.8,��
2021/05/03,23:50,0.617,0.906,0.577,1.116,0.783,0.370,0.642,0.604,�쐼,1.5,��
